Weather History for Farmington, MO

Change the Weather History Date:

Wednesday, August 21, 2013

  Actual Average Record
Temperature  
Mean Temperature 74 °F -  
Max Temperature 87 °F 84 °F 96 °F (2003)
Min Temperature 62 °F 63 °F 51 °F (2012)
Cooling Degree Days 10    
Growing Degree Days 24 (Base 50)    
Moisture  
Dew Point 65 °F    
Average Humidity 75    
Maximum Humidity 100    
Minimum Humidity 46    
Precipitation  
Precipitation 0.00 in - - ()
Sea Level Pressure  
Sea Level Pressure 30.14 in    
Wind  
Wind Speed 1 mph (SW)    
Max Wind Speed 8 mph    
Max Gust Speed -    
Visibility 8 miles    
Events      
Averages and records for this station are not official NWS values.
T = Trace of Precipitation, MM = Missing Value Source: NWS Daily Summary

Daily Weather History Graph

Daily Weather History Graph

Search for Another Location

Airport:

Trip Planner

Search our weather history database for the weather conditions in past years. The results will help you decide how hot, cold, wet, or windy it might be!

Date:

Astronomy

Aug. 21, 2013 Rise Set
Actual Time 6:22 AM CDT 7:46 PM CDT
Civil Twilight 5:55 AM CDT 8:13 PM CDT
Nautical Twilight 5:22 AM CDT 8:46 PM CDT
Astronomical Twilight 4:47 AM CDT 9:21 PM CDT
Moon 7:57 PM CDT (8/21) 7:01 AM CDT (8/21)
Length of Visible Light 14h 18m
Length of Day
13h 23m
Waxing Gibbous, 99% of the Moon is Illuminated
Aug 21
Waxing Gibbous
Aug 28
Last Quarter
Sep 5
New
Sep 12
First Quarter
Sep 19
Full

Hourly Weather History & Observations

Time (CDT) Temp. Heat Index Dew Point Humidity Pressure Visibility Wind Dir Wind Speed Gust Speed Precip Events Conditions
12:15 AM 68.0 °F - 66.2 °F 94% 30.12 in 8.0 mi Calm Calm - N/A   Clear
12:35 AM 66.2 °F - 64.4 °F 94% 30.13 in 7.0 mi Calm Calm - N/A   Clear
12:55 AM 66.2 °F - 64.4 °F 94% 30.13 in 6.0 mi Calm Calm - N/A   Clear
1:15 AM 66.2 °F - 64.4 °F 94% 30.12 in 3.0 mi Calm Calm - N/A   Clear
1:35 AM 66.2 °F - 64.4 °F 94% 30.13 in 6.0 mi Calm Calm - N/A   Clear
1:55 AM 66.2 °F - 64.4 °F 94% 30.13 in 2.5 mi Calm Calm - N/A   Clear
2:15 AM 64.4 °F - 62.6 °F 94% 30.12 in 1.8 mi Calm Calm - N/A   Clear
2:35 AM 64.4 °F - 62.6 °F 94% 30.13 in 5.0 mi Calm Calm - N/A   Clear
2:55 AM 64.4 °F - 62.6 °F 94% 30.12 in 5.0 mi Calm Calm - N/A   Clear
3:15 AM 64.4 °F - 62.6 °F 94% 30.12 in 1.0 mi Calm Calm - N/A   Clear
3:35 AM 64.4 °F - 62.6 °F 94% 30.12 in 4.0 mi Calm Calm - N/A   Clear
3:55 AM 64.4 °F - 62.6 °F 94% 30.12 in 3.0 mi Calm Calm - N/A   Clear
4:15 AM 64.4 °F - 62.6 °F 94% 30.12 in 0.5 mi Calm Calm - N/A   Unknown
4:35 AM 62.6 °F - 60.8 °F 94% 30.12 in 10.0 mi Calm Calm - N/A   Clear
4:55 AM 62.6 °F - 60.8 °F 94% 30.13 in 1.8 mi Calm Calm - N/A   Clear
5:15 AM 62.6 °F - 60.8 °F 94% 30.13 in 5.0 mi Calm Calm - N/A   Clear
5:35 AM 62.6 °F - 60.8 °F 94% 30.13 in 1.0 mi Calm Calm - N/A   Clear
5:55 AM 62.6 °F - 60.8 °F 94% 30.14 in 3.0 mi Calm Calm - N/A   Clear
6:15 AM 62.6 °F - 60.8 °F 94% 30.14 in 2.0 mi Calm Calm - N/A   Clear
6:35 AM 62.6 °F - 60.8 °F 94% 30.15 in 1.8 mi Calm Calm - N/A   Clear
6:55 AM 62.6 °F - 60.8 °F 94% 30.16 in 3.0 mi Calm Calm - N/A   Clear
7:15 AM 62.6 °F - 60.8 °F 94% 30.16 in 5.0 mi Calm Calm - N/A   Clear
7:35 AM 64.4 °F - 62.6 °F 94% 30.16 in 5.0 mi Calm Calm - N/A   Clear
7:55 AM 64.4 °F - 64.4 °F 100% 30.16 in 5.0 mi Calm Calm - N/A   Clear
8:15 AM 66.2 °F - 64.4 °F 94% 30.17 in 9.0 mi Calm Calm - N/A   Clear
8:35 AM 69.8 °F - 64.4 °F 83% 30.18 in 10.0 mi Calm Calm - N/A   Clear
8:55 AM 71.6 °F - 66.2 °F 83% 30.18 in 10.0 mi Calm Calm - N/A   Clear
9:15 AM 73.4 °F - 66.2 °F 78% 30.18 in 10.0 mi Calm Calm - N/A   Clear
9:35 AM 75.2 °F - 68.0 °F 78% 30.18 in 10.0 mi Calm Calm - N/A   Clear
9:55 AM 78.8 °F - 69.8 °F 74% 30.19 in 10.0 mi SSW 4.6 mph - N/A   Clear
10:15 AM 78.8 °F - 69.8 °F 74% 30.19 in 10.0 mi SSW 5.8 mph - N/A   Clear
10:35 AM 80.6 °F 83.9 °F 69.8 °F 70% 30.19 in 10.0 mi SSW 4.6 mph - N/A   Clear
10:55 AM 82.4 °F 85.4 °F 68.0 °F 62% 30.18 in 10.0 mi SSE 6.9 mph - N/A   Clear
11:15 AM 82.4 °F 84.6 °F 66.2 °F 58% 30.18 in 10.0 mi SSW 6.9 mph - N/A   Scattered Clouds
11:35 AM 80.6 °F 82.3 °F 64.4 °F 58% 30.18 in 10.0 mi SW 5.8 mph - N/A   Mostly Cloudy
11:55 AM 82.4 °F 84.6 °F 66.2 °F 58% 30.17 in 10.0 mi South 6.9 mph - N/A   Partly Cloudy
12:15 PM 84.2 °F 86.6 °F 66.2 °F 55% 30.17 in 10.0 mi West 8.1 mph - N/A   Partly Cloudy
12:35 PM 80.6 °F 82.3 °F 64.4 °F 58% 30.17 in 10.0 mi SW 8.1 mph - N/A   Mostly Cloudy
12:55 PM 84.2 °F 85.6 °F 64.4 °F 51% 30.16 in 10.0 mi SW 6.9 mph - N/A   Scattered Clouds
1:15 PM 84.2 °F 85.6 °F 64.4 °F 51% 30.16 in 10.0 mi WSW 5.8 mph - N/A   Scattered Clouds
1:35 PM 84.2 °F 85.6 °F 64.4 °F 51% 30.15 in 10.0 mi SSW 3.5 mph - N/A   Scattered Clouds
1:55 PM 84.2 °F 85.6 °F 64.4 °F 51% 30.15 in 10.0 mi West 4.6 mph - N/A   Clear
2:15 PM 84.2 °F 85.6 °F 64.4 °F 51% 30.14 in 10.0 mi WSW 3.5 mph - N/A   Partly Cloudy
2:35 PM 87.8 °F 89.4 °F 64.4 °F 46% 30.13 in 10.0 mi WSW 6.9 mph - N/A   Partly Cloudy
2:55 PM 86.0 °F 87.3 °F 64.4 °F 48% 30.13 in 10.0 mi NW 5.8 mph - N/A   Partly Cloudy
3:15 PM 86.0 °F 87.3 °F 64.4 °F 48% 30.12 in 10.0 mi South 4.6 mph - N/A   Partly Cloudy
3:35 PM 86.0 °F 87.3 °F 64.4 °F 48% 30.12 in 8.0 mi WSW 3.5 mph - N/A   Clear
3:55 PM 84.2 °F 85.6 °F 64.4 °F 51% 30.12 in 10.0 mi SSW 5.8 mph - N/A   Scattered Clouds
4:15 PM 87.8 °F 89.4 °F 64.4 °F 46% 30.11 in 10.0 mi SW 6.9 mph - N/A   Mostly Cloudy
4:35 PM 86.0 °F 87.3 °F 64.4 °F 48% 30.11 in 10.0 mi SW 4.6 mph - N/A   Partly Cloudy
4:55 PM 86.0 °F 87.3 °F 64.4 °F 48% 30.11 in 10.0 mi West 3.5 mph - N/A   Clear
5:15 PM 86.0 °F 87.3 °F 64.4 °F 48% 30.10 in 10.0 mi West 4.6 mph - N/A   Clear
5:35 PM 84.2 °F 85.6 °F 64.4 °F 51% 30.10 in 10.0 mi West 3.5 mph - N/A   Clear
5:55 PM 84.2 °F 85.6 °F 64.4 °F 51% 30.10 in 10.0 mi WSW 4.6 mph - N/A   Clear
6:15 PM 84.2 °F 86.6 °F 66.2 °F 55% 30.10 in 10.0 mi Calm Calm - N/A   Clear
6:35 PM 84.2 °F 86.6 °F 66.2 °F 55% 30.09 in 10.0 mi SSW 4.6 mph - N/A   Partly Cloudy
6:55 PM 82.4 °F 84.6 °F 66.2 °F 58% 30.09 in 10.0 mi SSW 4.6 mph - N/A   Partly Cloudy
7:15 PM 82.4 °F 84.6 °F 66.2 °F 58% 30.09 in 10.0 mi SSW 4.6 mph - N/A   Clear
7:35 PM 80.6 °F 83.2 °F 68.0 °F 65% 30.09 in 10.0 mi South 4.6 mph - N/A   Clear
7:55 PM 78.8 °F - 68.0 °F 69% 30.09 in 10.0 mi South 3.5 mph - N/A   Clear
8:15 PM 75.2 °F - 68.0 °F 78% 30.09 in 10.0 mi Calm Calm - N/A   Clear
8:35 PM 77.0 °F - 68.0 °F 74% 30.10 in 10.0 mi Calm Calm - N/A   Clear
8:55 PM 75.2 °F - 68.0 °F 78% 30.11 in 10.0 mi Calm Calm - N/A   Clear
9:15 PM 73.4 °F - 66.2 °F 78% 30.11 in 10.0 mi Calm Calm - N/A   Clear
9:35 PM 73.4 °F - 68.0 °F 83% 30.12 in 10.0 mi Calm Calm - N/A   Clear
9:55 PM 73.4 °F - 68.0 °F 83% 30.13 in 10.0 mi Calm Calm - N/A   Clear
10:15 PM 71.6 °F - 68.0 °F 88% 30.13 in 10.0 mi Calm Calm - N/A   Clear
10:35 PM 71.6 °F - 68.0 °F 88% 30.13 in 10.0 mi Calm Calm - N/A   Clear
10:55 PM 69.8 °F - 66.2 °F 88% 30.13 in 10.0 mi Calm Calm - N/A   Clear
11:15 PM 71.6 °F - 68.0 °F 88% 30.14 in 10.0 mi Calm Calm - N/A   Clear
11:35 PM 71.6 °F - 66.2 °F 83% 30.14 in 10.0 mi Calm Calm - N/A   Clear
11:55 PM 69.8 °F - 66.2 °F 88% 30.14 in 10.0 mi Calm Calm - N/A   Clear